Weather observations for the past three days for
Kingstree Williamsburg Regional Airport
Imperial (Metric)
Date Time (edt) Wind (mph) Vis. (mi.) Weather Sky Cond. Temperature (ºF) Relative Humidity Wind Chill (°F) Heat Index (°F) Pressure Precipitation (in)
Air Dwpt 6 hour altimeter (in) sea level (mb) 1 hr 3 hr 6 hr
Max. Min.
17 08:15 SW 6 10.00 Mostly Cloudy SCT012 BKN070 BKN100 78.8 71.6 79% 82 30.04 0.0
17 07:55 SW 6 10.00 Fair CLR 78.8 71.6 79% 82 30.04 0.0
17 07:35 SW 3 10.00 Fair CLR 77 71.6 83% 78 30.03 0.0
17 07:15 S 6 10.00 Fair CLR 77 71.6 83% 78 30.02 0.0
17 06:55 SW 3 10.00 Fair CLR 77 71.6 83% 78 30.01 0.0
17 06:35 SW 6 10.00 Partly Cloudy SCT075 77 71.6 83% 78 30 0.0
17 06:15 SW 5 10.00 Mostly Cloudy BKN075 75.2 71.6 89% 75 29.99 0.0
17 05:55 SW 3 10.00 Mostly Cloudy BKN065 75.2 71.6 89% 75 29.98 0.0
17 05:35 Calm 10.00 Partly Cloudy SCT065 73.4 71.6 94% 29.97 0.0
17 05:15 Calm 10.00 Fair CLR 73.4 71.6 94% 29.97 0.0
17 04:55 Calm 10.00 Fair CLR 73.4 71.6 94% 29.96 0.0
17 04:35 Calm 10.00 Fair CLR 73.4 71.6 94% 29.96 0.0
17 04:15 Calm 10.00 Fair CLR 73.4 71.6 94% 29.96 0.0
17 03:55 Calm 10.00 Fair CLR 73.4 71.6 94% 29.96 0.0
17 03:35 Calm 10.00 Fair CLR 73.4 71.6 94% 29.96 0.0
17 03:15 Calm 10.00 Fair CLR 73.4 71.6 94% 29.96 0.0
17 02:55 Calm 10.00 Fair CLR 73.4 69.8 89% 29.97 0.0
17 02:35 SE 3 10.00 Fair CLR 73.4 69.8 89% 29.97 0.0
17 02:15 SE 5 10.00 Fair CLR 73.4 69.8 89% 29.97 0.0
17 01:55 SE 6 10.00 Fair CLR 73.4 69.8 89% 29.98 0.0
17 01:35 SE 5 10.00 Fair CLR 73.4 69.8 89% 29.99 0.0
17 01:15 SE 3 10.00 Fair CLR 73.4 69.8 89% 30 0.0
17 00:55 Calm 10.00 Fair CLR 75.2 69.8 83% 75 30 0.0
17 00:35 Calm 10.00 Fair CLR 77 69.8 79% 79 30.01 0.0
17 00:15 Calm 10.00 Fair CLR 77 69.8 79% 79 30.01 0.0
16 23:55 Calm 10.00 Fair CLR 77 69.8 79% 79 30.02 0.0
16 23:35 Calm 10.00 Fair CLR 77 69.8 79% 79 30.01 0.0
16 23:15 S 3 10.00 Fair CLR 77 68 74% 79 30.01 0.0
16 22:55 S 3 10.00 Fair CLR 77 68 74% 79 30 0.0
16 22:35 S 3 10.00 Fair CLR 78.8 68 70% 81 30 0.0
16 22:15 Calm 10.00 Fair CLR 78.8 69.8 74% 81 30 0.0
16 21:55 S 3 10.00 Fair CLR 78.8 69.8 74% 81 29.99 0.0
16 21:35 SW 3 10.00 Fair CLR 78.8 69.8 74% 81 29.99 0.0
16 21:15 S 8 10.00 Fair CLR 80.6 69.8 70% 84 29.99 0.0
16 20:55 S 6 10.00 Fair CLR 80.6 68 66% 83 29.99 0.0
16 20:35 S 3 10.00 Fair CLR 82.4 68 62% 85 30 0.0
16 20:15 S 3 10.00 Fair CLR 82.4 68 62% 85 29.99 0.0
16 19:55 SE 3 10.00 Fair CLR 82.4 69.8 66% 86 29.99 0.0
16 19:35 E 5 10.00 Partly Cloudy SCT055 82.4 71.6 70% 87 30 0.0
16 19:15 NE 3 10.00 Partly Cloudy SCT055 86 69.8 59% 91 30 0.0
16 18:55 Calm 10.00 Fair CLR 86 68 55% 89 29.98 0.0
16 18:35 Calm 10.00 Thunderstorm in Vicinity CLR 86 68 55% 89 29.97 0.0
16 18:15 SE 3 10.00 Thunderstorm in Vicinity CLR 86 68 55% 89 29.97 0.0
16 17:55 Calm 10.00 Thunderstorm in Vicinity SCT040 SCT055 SCT075 86 68 55% 89 29.98 0.0
16 17:35 NW 8 10.00 Thunderstorm in Vicinity SCT100 86 68 55% 89 29.98 0.0
16 17:15 SW 8 10.00 Thunderstorm SCT085 89.6 62.6 41% 90 29.97 0.0
16 16:55 SW 3 5.00 Thunderstorm Haze SCT047 SCT055 BKN085 86 69.8 59% 91 29.96 0.0
16 16:35 SW 10 10.00 Thunderstorm SCT047 BKN110 89.6 69.8 52% 95 29.96 0.0
16 16:15 S 9 10.00 Partly Cloudy SCT048 SCT060 SCT070 91.4 68 46% 96 29.94 0.0
16 15:55 S 8 10.00 Mostly Cloudy SCT048 SCT060 BKN100 95 69.8 44% 101 29.95 0.0
16 15:35 S 8 G 16 10.00 Partly Cloudy SCT050 SCT055 95 69.8 44% 101 29.95 0.0
16 15:15 S 9 10.00 Mostly Cloudy BKN050 BKN065 95 69.8 44% 101 29.96 0.0
16 14:55 S 7 10.00 Mostly Cloudy BKN049 BKN070 95 69.8 44% 101 29.96 0.0
16 14:35 S 8 10.00 Mostly Cloudy SCT047 BKN070 95 69.8 44% 101 29.97 0.0
16 14:15 SW 7 10.00 Partly Cloudy SCT045 SCT060 95 68 41% 100 29.98 0.0
16 13:55 S 8 G 17 10.00 Partly Cloudy SCT050 95 68 41% 100 29.98 0.0
16 13:35 SW 13 G 16 10.00 Partly Cloudy SCT050 95 68 41% 100 29.99 0.0
16 13:15 S 10 10.00 Partly Cloudy SCT050 95 68 41% 100 30 0.0
16 12:55 SW 9 10.00 Fair CLR 93.2 68 44% 98 30 0.0
16 12:35 S 8 10.00 Fair CLR 93.2 68 44% 98 30.01 0.0
16 12:15 S 8 10.00 Fair CLR 91.4 69.8 49% 97 30 0.0
16 11:55 S 7 10.00 Fair CLR 91.4 69.8 49% 97 30.01 0.0
16 11:35 SE 6 10.00 Fair CLR 89.6 69.8 52% 95 30.01 0.0
16 11:15 SW 6 10.00 Fair CLR 87.8 69.8 55% 93 30.01 0.0
16 10:55 S 7 10.00 Fair CLR 87.8 71.6 59% 94 30.02 0.0
16 10:35 SE 5 10.00 Fair CLR 87.8 71.6 59% 94 30.02 0.0
16 10:15 S 6 10.00 Fair CLR 86 71.6 62% 92 30.03 0.0
16 09:55 SW 5 10.00 Fair CLR 84.2 69.8 62% 88 30.03 0.0
16 09:35 Calm 10.00 Fair CLR 82.4 71.6 70% 87 30.03 0.0
16 09:15 SW 6 10.00 Fair CLR 80.6 71.6 74% 85 30.03 0.0
16 08:55 S 5 10.00 Fair CLR 80.6 71.6 74% 85 30.03 0.0
16 08:35 S 5 10.00 Fair CLR 78.8 71.6 79% 82 30.04 0.0
16 08:15 S 5 10.00 Fair CLR 77 71.6 83% 78 30.03 0.0
16 07:55 SW 3 10.00 Fair CLR 77 69.8 79% 79 30.03 0.0
16 07:35 S 3 10.00 Fair CLR 75.2 69.8 83% 75 30.02 0.0
16 07:15 Calm 10.00 Fair CLR 73.4 69.8 89% 30.02 0.0
16 06:55 Calm 10.00 Fair CLR 73.4 69.8 89% 30.01 0.0
16 06:35 S 3 10.00 Fair CLR 71.6 69.8 94% 30.01 0.0
16 06:15 Calm 10.00 Fair CLR 71.6 69.8 94% 30 0.0
16 05:55 Calm 10.00 Fair CLR 71.6 69.8 94% 30 0.0
16 05:35 Calm 10.00 Fair CLR 71.6 69.8 94% 29.99 0.0
16 05:15 Calm 10.00 Fair CLR 73.4 68 83% 29.99 0.0
16 04:55 Calm 10.00 Fair CLR 73.4 68 83% 29.98 0.0
16 04:35 Calm 10.00 Fair CLR 73.4 68 83% 29.98 0.0
16 04:15 Calm 10.00 Fair CLR 73.4 68 83% 29.97 0.0
16 03:55 Calm 10.00 Fair CLR 73.4 68 83% 29.96 0.0
16 03:35 Calm 10.00 Fair CLR 73.4 68 83% 29.97 0.0
16 03:15 Calm 10.00 Fair CLR 73.4 68 83% 29.96 0.0
16 02:55 S 3 10.00 Fair CLR 75.2 68 78% 76 29.97 0.0
16 02:35 S 3 10.00 Fair CLR 75.2 68 78% 76 29.97 0.0
16 02:15 S 6 10.00 Fair CLR 75.2 68 78% 76 29.97 0.0
16 01:55 S 3 10.00 Fair CLR 75.2 68 78% 76 29.98 0.0
16 01:35 Calm 10.00 Fair CLR 77 68 74% 79 29.99 0.0
16 01:15 S 3 10.00 Fair CLR 77 68 74% 79 29.98 0.0
16 00:55 Calm 10.00 Fair CLR 77 68 74% 79 29.99 0.0
16 00:35 Calm 10.00 Fair CLR 77 68 74% 79 30 0.0
16 00:15 Calm 10.00 Fair CLR 77 69.8 79% 79 30.01 0.0
15 23:55 Calm 10.00 Fair CLR 77 69.8 79% 79 30.01 0.0
15 23:35 Calm 10.00 Fair CLR 77 69.8 79% 79 30 0.0
15 23:15 Calm 10.00 Fair CLR 77 69.8 79% 79 30 0.0
15 22:55 Calm 10.00 Fair CLR 77 69.8 79% 79 30 0.0
15 22:35 Calm 10.00 Fair CLR 77 69.8 79% 79 29.99 0.0
15 22:15 Calm 10.00 Fair CLR 78.8 71.6 79% 82 29.99 0.0
15 21:55 Calm 10.00 Fair CLR 78.8 69.8 74% 81 29.99 0.0
15 21:35 S 3 10.00 Fair CLR 78.8 69.8 74% 81 29.99 0.0
15 21:15 Calm 10.00 Fair CLR 80.6 69.8 70% 84 29.99 0.0
15 20:55 Calm 10.00 Fair CLR 80.6 69.8 70% 84 29.99 0.0
15 20:35 SE 3 10.00 Fair CLR 80.6 69.8 70% 84 29.99 0.0
15 20:15 SE 5 10.00 Fair CLR 80.6 69.8 70% 84 29.99 0.0
15 19:55 E 7 10.00 Fair CLR 80.6 69.8 70% 84 29.99 0.0
15 19:35 E 3 10.00 Fair CLR 82.4 68 62% 85 29.99 0.0
15 19:15 E 5 10.00 Fair CLR 82.4 68 62% 85 29.98 0.0
15 18:55 E 3 10.00 Fair CLR 84.2 68 58% 87 29.97 0.0
15 18:35 SE 9 10.00 Fair CLR 86 69.8 59% 91 29.97 0.0
15 18:15 SE 10 10.00 Fair CLR 86 69.8 59% 91 29.97 0.0
15 17:55 S 7 10.00 Partly Cloudy SCT065 SCT080 87.8 69.8 55% 93 29.96 0.0
15 17:35 S 8 10.00 Thunderstorm SCT065 89.6 69.8 52% 95 29.96 0.0
15 17:15 W 7 10.00 Thunderstorm in Vicinity CLR 89.6 69.8 52% 95 29.94 0.0
15 16:55 W 7 10.00 Thunderstorm in Vicinity CLR 91.4 69.8 49% 97 29.93 0.0
15 16:35 SW 6 10.00 Fair CLR 93.2 68 44% 98 29.93 0.0
15 16:15 SW 7 10.00 Fair CLR 95 66.2 39% 98 29.94 0.0
15 15:55 S 6 10.00 Partly Cloudy SCT110 95 66.2 39% 98 29.94 0.0
15 15:35 S 6 10.00 Partly Cloudy SCT110 96.8 64.4 34% 99 29.95 0.0
15 15:15 S 6 10.00 Partly Cloudy SCT065 96.8 64.4 34% 99 29.96 0.0
15 14:55 SW 6 10.00 Partly Cloudy SCT090 SCT110 96.8 62.6 32% 98 29.97 0.0
15 14:35 S 9 10.00 Partly Cloudy SCT090 SCT110 96.8 60.8 30% 97 29.98 0.0
15 14:15 SE 3 10.00 Partly Cloudy SCT110 96.8 64.4 34% 99 29.99 0.0
15 13:55 S 10 G 17 10.00 Mostly Cloudy SCT080 SCT095 BKN120 96.8 68 39% 102 29.99 0.0
15 13:35 S 8 10.00 Mostly Cloudy SCT070 BKN090 95 68 41% 100 30 0.0
15 13:15 S 6 10.00 Fair CLR 96.8 69.8 42% 103 30.01 0.0
15 12:55 S 8 10.00 Fair CLR 96.8 68 39% 102 30.02 0.0
15 12:35 Calm 10.00 Fair CLR 95 68 41% 100 30.03 0.0
15 12:15 Calm 10.00 Fair CLR 95 69.8 44% 101 30.03 0.0
15 11:55 S 5 10.00 Fair CLR 91.4 69.8 49% 97 30.04 0.0
15 11:35 W 5 10.00 Fair CLR 91.4 69.8 49% 97 30.04 0.0
15 11:15 W 6 10.00 Fair CLR 89.6 71.6 55% 96 30.05 0.0
15 10:55 SW 3 10.00 Fair CLR 87.8 71.6 59% 94 30.05 0.0
15 10:35 SW 6 10.00 Fair CLR 87.8 71.6 59% 94 30.06 0.0
15 10:15 SW 5 10.00 Fair CLR 87.8 71.6 59% 94 30.06 0.0
15 09:55 W 6 10.00 Fair CLR 87.8 71.6 59% 94 30.06 0.0
15 09:35 W 5 10.00 Fair CLR 86 71.6 62% 92 30.06 0.0
15 09:15 SW 6 10.00 Fair CLR 84.2 71.6 66% 90 30.06 0.0
15 08:55 W 5 10.00 Fair CLR 84.2 71.6 66% 90 30.06 0.0
15 08:35 S 3 10.00 Fair CLR 82.4 71.6 70% 87 30.06 0.0
15 08:15 Calm 10.00 Fair CLR 80.6 71.6 74% 85 30.05 0.0
15 07:55 S 3 10.00 Fair CLR 78.8 71.6 79% 82 30.05 0.0
15 07:35 Calm 10.00 Fair CLR 78.8 71.6 79% 82 30.05 0.0
15 07:15 Calm 10.00 Fair CLR 77 71.6 83% 78 30.04 0.0
15 06:55 Calm 10.00 Fair CLR 73.4 71.6 94% 30.04 0.0
15 06:35 Calm 10.00 Fair CLR 75.2 71.6 89% 75 30.03 0.0
15 06:15 Calm 10.00 Fair CLR 75.2 71.6 89% 75 30.03 0.0
15 05:55 Calm 10.00 Fair CLR 75.2 71.6 89% 75 30.02 0.0
15 05:35 Calm 10.00 Fair CLR 75.2 71.6 89% 75 30.02 0.0
15 05:15 Calm 10.00 Fair CLR 75.2 71.6 89% 75 30.01 0.0
15 04:55 Calm 10.00 Fair CLR 77 71.6 83% 78 30.01 0.0
15 04:35 Calm 10.00 Fair CLR 77 71.6 83% 78 30.01 0.0
15 04:15 Calm 10.00 Fair CLR 77 73.4 89% 78 30 0.0
15 03:55 Calm 10.00 Fair CLR 77 73.4 89% 78 30.01 0.0
15 03:35 Calm 10.00 Fair CLR 77 73.4 89% 78 30.01 0.0
15 03:15 Calm 10.00 Fair CLR 77 73.4 89% 78 30.01 0.0
15 02:55 Calm 10.00 Fair CLR 77 73.4 89% 78 30.02 0.0
15 02:35 Calm 10.00 Fair CLR 77 71.6 83% 78 30.02 0.0
15 02:15 Calm 10.00 Fair CLR 77 71.6 83% 78 30.03 0.0
15 01:55 SE 3 10.00 Fair CLR 77 71.6 83% 78 30.04 0.0
15 01:35 Calm 10.00 Fair CLR 77 71.6 83% 78 30.05 0.0
15 01:15 SE 3 10.00 Fair CLR 77 71.6 83% 78 30.06 0.0
15 00:55 Calm 10.00 Fair CLR 77 69.8 79% 79 30.07 0.0
15 00:35 Calm 10.00 Fair CLR 77 69.8 79% 79 30.07 0.0
15 00:15 Calm 10.00 Fair CLR 77 69.8 79% 79 30.07 0.0
14 23:55 Calm 10.00 Fair CLR 77 69.8 79% 79 30.07 0.0
14 23:35 Calm 10.00 Fair CLR 77 68 74% 79 30.06 0.0
14 23:15 Calm 10.00 Fair CLR 77 68 74% 79 30.06 0.0
14 22:55 Calm 10.00 Fair CLR 78.8 68 70% 81 30.06 0.0
14 22:35 S 3 10.00 Fair CLR 78.8 68 70% 81 30.06 0.0
14 22:15 SE 3 10.00 Fair CLR 78.8 68 70% 81 30.06 0.0
14 21:55 SE 5 10.00 Fair CLR 80.6 68 66% 83 30.06 0.0
14 21:35 SE 5 10.00 Fair CLR 80.6 68 66% 83 30.06 0.0
14 21:15 SE 6 10.00 Fair CLR 80.6 68 66% 83 30.06 0.0
14 20:55 S 3 10.00 Fair CLR 82.4 68 62% 85 30.06 0.0
14 20:35 S 5 10.00 Fair CLR 82.4 68 62% 85 30.05 0.0
14 20:15 S 5 10.00 Fair CLR 84.2 68 58% 87 30.04 0.0
14 19:55 SE 7 10.00 Fair CLR 86 68 55% 89 30.04 0.0
14 19:35 SE 6 10.00 Fair CLR 86 69.8 59% 91 30.03 0.0
14 19:15 SE 8 10.00 Fair CLR 87.8 69.8 55% 93 30.02 0.0
14 18:55 SE 10 G 16 10.00 Fair CLR 87.8 71.6 59% 94 30.02 0.0
14 18:35 SE 12 G 20 10.00 Fair CLR 89.6 73.4 59% 98 30.02 0.0
14 18:15 S 13 G 17 10.00 Fair CLR 91.4 73.4 56% 100 30.02 0.0
14 17:55 SE 14 G 22 10.00 Partly Cloudy SCT075 93.2 71.6 50% 101 30.01 0.0
14 17:35 S 7 10.00 Partly Cloudy SCT065 96.8 59 28% 96 30.01 0.0
14 17:15 S 7 10.00 Partly Cloudy SCT065 96.8 64.4 34% 99 30.01 0.0
14 16:55 SW 5 10.00 Partly Cloudy SCT065 SCT080 98.6 62.6 31% 100 30.02 0.0
14 16:35 S 5 10.00 Fair CLR 96.8 62.6 32% 98 30.03 0.0
14 16:15 S 8 10.00 Fair CLR 98.6 62.6 31% 100 30.04 0.0
14 15:55 S 3 10.00 Fair CLR 96.8 62.6 32% 98 30.04 0.0
14 15:35 SE 6 10.00 Fair CLR 96.8 64.4 34% 99 30.05 0.0
14 15:15 SW 6 10.00 Fair CLR 96.8 64.4 34% 99 30.06 0.0
14 14:55 S 7 10.00 Partly Cloudy SCT090 95 66.2 39% 98 30.07 0.0
14 14:35 SW 6 10.00 Partly Cloudy SCT090 95 68 41% 100 30.07 0.0
14 14:15 SE 6 10.00 Fair CLR 95 68 41% 100 30.07 0.0
14 13:55 SW 5 10.00 Fair CLR 95 64.4 36% 97 30.08 0.0
14 13:35 Calm 10.00 Fair CLR 95 69.8 44% 101 30.09 0.0
14 13:15 S 6 10.00 Partly Cloudy SCT049 SCT060 SCT065 93.2 68 44% 98 30.1 0.0
14 12:55 Calm 10.00 Mostly Cloudy BKN047 BKN055 BKN090 91.4 69.8 49% 97 30.11 0.0
14 12:35 Calm 10.00 Overcast BKN047 OVC055 91.4 69.8 49% 97 30.11 0.0
14 12:15 S 5 10.00 Mostly Cloudy SCT045 BKN055 BKN065 91.4 69.8 49% 97 30.11 0.0
14 11:55 Calm 10.00 Fair CLR 91.4 69.8 49% 97 30.12 0.0
14 11:35 Calm 10.00 Fair CLR 91.4 71.6 52% 99 30.12 0.0
14 11:15 S 5 10.00 Fair CLR 89.6 69.8 52% 95 30.12 0.0
14 10:55 Calm 10.00 Partly Cloudy SCT110 89.6 69.8 52% 95 30.13 0.0
14 10:35 W 3 10.00 Partly Cloudy SCT110 87.8 71.6 59% 94 30.14 0.0
14 10:15 Calm 10.00 Partly Cloudy SCT110 87.8 71.6 59% 94 30.14 0.0
14 09:55 NW 5 10.00 Partly Cloudy SCT110 86 71.6 62% 92 30.14 0.0
14 09:35 SW 5 10.00 Fair CLR 86 71.6 62% 92 30.14 0.0
14 09:15 W 5 10.00 Fair CLR 84.2 73.4 70% 91 30.14 0.0
14 08:55 W 6 10.00 Fair CLR 82.4 73.4 74% 88 30.14 0.0
14 08:35 Calm 10.00 Fair CLR 80.6 73.4 79% 85 30.14 0.0
Date Time (edt) Wind (mph) Vis. (mi.) Weather Sky Cond. Air Dwpt Max. Min. Relative Humidity Wind Chill (°F) Heat Index (°F) altimeter (in) sea level (mb) 1 hr 3 hr 6 hr
6 hour
Temperature (ºF) Pressure Precipitation (in)